weather.gov     
National Weather Service

Terminal Aerodrome Forecast
NWS Homepage
This page is being discontinued on March 12, 2014.
The same data is available at this site. Please update your bookmarks.
Thank you, and we apologize for the inconvenience.
Please send an email to SR-SRH.Webmaster@noaa.gov with any concerns.


Current Version
Previous Version:    01  02  03  04  05  06  07  08  09  10  11  12  13  14  15  16  17  18  19  20  21  22  23  24  25  26  27  28  29  
[Printable]
091
FTUS45 KGJT 200520
TAFRIL
TAF
KRIL 200520Z 2006/2106 19010KT P6SM VCSH SCT020
     FM200900 VRB03KT P6SM VCSH BKN030
     FM201500 28008KT P6SM SCT030 BKN050
     FM201900 27008KT P6SM BKN120
     FM210000 28009KT P6SM OVC100=




091
FTUS45 KGJT 200520
TAFRIL
TAF
KRIL 200520Z 2006/2106 19010KT P6SM VCSH SCT020
     FM200900 VRB03KT P6SM VCSH BKN030
     FM201500 28008KT P6SM SCT030 BKN050
     FM201900 27008KT P6SM BKN120
     FM210000 28009KT P6SM OVC100=


U.S. Dept. of Commerce
NOAA National Weather Service
1325 East West Highway
Silver Spring, MD 20910
E-mail: w-nws.webmaster@noaa.gov
Page last modified: May 16, 2007
NATIONAL WEATHER SERVICE: for Safety, for Work, for Fun - FOR LIFE